Regional Weather Roundup
Issued by NWS

Home | Current Version | Previous Version | Graphics & Text | Print | Product List | Glossary On
Versions: 1 2 3 4 5 6 7 8 9 10 11 12 13 14 15 16 17 18 19 20 21 22 23 24 25 26 27 28 29 30 31 32 33 34 35 36 37 38 39 40 41 42 43 44 45 46 47 48 49 50
446
ASUS44 KLIX 310105
RWRLA
LOUISIANA WEATHER ROUNDUP
NATIONAL WEATHER SERVICE NEW ORLEANS LA
800 PM CDT THU OCT 30 2014

NOTE: "FAIR" INDICATES FEW OR NO CLOUDS BELOW 12,000 FEET WITH NO
      SIGNIFICANT WEATHER AND/OR OBSTRUCTIONS TO VISIBILITY.
      SKY/WX - SKY CONDITION AND SIGNIFICANT WEATHER.
      TMP - AIR TEMPERATURE.    DP   - DEWPOINT TEMPERATURE.
      RH  - RELATIVE HUMIDITY.  PRES - PRESSURE.
      HX  - HEAT INDEX.         WCI  - WIND CHILL INDEX.

*  THESE STATIONS ARE NOT NWS OR FAA STATIONS AND ARE NOT UNDER
   NWS QUALITY CONTROL.

LAZ040-048-061>063-065-066-069-310200-
SOUTHEAST LOUISIANA

CITY           SKY/WX    TMP DP  RH WIND       PRES   REMARKS
N.O. AUDUBON     N/A     63 N/A N/A MISG        N/A
N.O. INTL ARPT CLEAR     62  46  55 W5        30.03F
N.O. LAKEFRONT CLEAR     70  45  40 N10       30.04S
N.O. DOWNTOWN* FAIR      70  41  35 CALM      30.04S
SLIDELL        CLEAR     56  48  74 CALM      30.03S
BATON ROUGE    CLEAR     56  49  77 CALM      30.06R
BOOTHVILLE     CLEAR     65  52  62 CALM      30.04R
BELLE CHASSE   CLEAR     55  49  80 SW3       30.03S
BOGALUSA*      FAIR      55  46  70 CALM      30.06R
NEW ROADS*     FAIR      58  49  72 CALM      30.06S
GONZALES*      FAIR      56  52  86 CALM      30.05R
HAMMOND*       CLEAR     55  46  71 CALM      30.07R
HOUMA*         CLEAR     57  50  77 CALM      30.05R
PORT FOURCHON* CLEAR     68  48  49 N8G14     30.07S

$$

LAZ041-044-053-054-310200-
SOUTHWEST LOUISIANA

CITY           SKY/WX    TMP DP  RH WIND       PRES   REMARKS
LAKE CHARLES   CLEAR     57  50  77 CALM      30.07R
LAFAYETTE      CLEAR     59  55  87 CALM      30.06S
PATTERSON      CLEAR     57  54  88 CALM      30.08R
SALT POINT       N/A     63  52  67 N3        30.05R
NEW IBERIA     CLEAR     59  51  75 CALM      30.06S
CHENAULT AIRPK CLEAR     63  50  63 N3        30.07S

$$

LAZ027-028-310200-
CENTRAL LOUISIANA

CITY           SKY/WX    TMP DP  RH WIND       PRES   REMARKS
FORT POLK      CLEAR     56  51  85 CALM      30.07R
ALEXANDRIA INT CLEAR     55  49  80 CALM      30.06R
ALEXANDRIA     CLEAR     53  51  93 CALM      30.07S

$$

LAZ001-002-310200-
NORTHWEST LOUISIANA

CITY           SKY/WX    TMP DP  RH WIND       PRES   REMARKS
SHREVEPORT     PTCLDY    61  49  64 CALM      30.07R
BARKSDALE AFB  PTCLDY    57  47  70 NE2       30.08R
DTN SHREVEPORT PTCLDY    58  49  72 CALM      30.08R

$$

LAZ014-016-310200-
NORTHEAST LOUISIANA

CITY           SKY/WX    TMP DP  RH WIND       PRES   REMARKS
MONROE         PTCLDY    56  49  77 CALM      30.08R
TALLULAH       CLEAR     51  48  89 CALM      30.07R

$$




USA.gov is the U.S. government's official web portal to all federal, state and local government web resources and services.